Regional Weather Roundup
Issued by NWS

Home | Current Version | Previous Version | Text Only | Print | Product List | Glossary On
Versions: 1 2 3 4 5 6 7 8 9 10 11 12 13 14 15 16 17 18 19 20 21 22 23 24 25 26 27 28 29 30 31 32 33 34 35 36 37 38 39 40 41 42 43 44 45 46 47 48 49 50
644
ASUS45 KBOU 250707
RWRCO

WEATHER ROUNDUP FOR COLORADO
NATIONAL WEATHER SERVICE DENVER/BOULDER CO
100 AM MDT MON SEP 25 2017

NOTE: "FAIR" INDICATES FEW OR NO CLOUDS BELOW 12000 FEET WITH NO
SIGNIFICANT WEATHER AND/OR OBSTRUCTIONS TO VISIBILITY.

COZ001>005-013-030-031-250800-
...NORTHWEST COLORADO...

CITY           SKY/WX    TMP DP  RH WIND       PRES   REMARKS
CRAIG          FAIR      34  29  82 CALM      30.10S
HAYDEN         FAIR      34  28  79 CALM      30.12S
MEEKER         FAIR      31  29  92 CALM      30.10F
RABBIT EARS PA FAIR      28  23  80 S3        30.16F
STEAMBOAT SPGS FAIR      32  30  93 CALM      30.11S
WALDEN         FAIR      32  28  86 SE3       30.13S
$$

COZ006>008-011-250800-
...WEST CENTRAL VALLEYS...

CITY           SKY/WX    TMP DP  RH WIND       PRES   REMARKS
GRAND JUNCTION FAIR      41  30  65 NE3       30.05S
MONTROSE       FAIR      39  25  57 SE10      30.10R
EAGLE          FAIR      35  25  66 E5        30.13R WCI  31
RIFLE          FAIR      40  34  79 CALM      30.08R
DELTA          NOT AVBL
NUCLA          FAIR      37  23  56 E6        30.11S
$$

COZ017>023-064>068-250800-
...SOUTHWEST COLORADO...

CITY           SKY/WX    TMP DP  RH WIND       PRES   REMARKS
DURANGO        FAIR      35  23  61 CALM      30.05S
CORTEZ         FAIR      32  28  85 E6        30.06R WCI  26
PAGOSA SPRINGS CLOUDY    42  28  56 CALM      30.09R
TELLURIDE      FAIR      32  22  67 SE5       30.16F WCI  27
WOLF CREEK PAS CLOUDY    28  18  64 S9        30.26S WCI  20
$$

COZ009-010-012-014-032>034-037-058>063-250800-
...CENTRAL COLORADO...

CITY           SKY/WX    TMP DP  RH WIND       PRES   REMARKS
ASPEN          FAIR      32  22  66 S6        30.12R WCI  26
BUENA VISTA    MOCLDY    40  25  56 NW8       30.10S
COPPER MTN     FAIR      30  21  69 MISG      30.21F
BERTHOUD PASS  FAIR      21  12  68 SW9       30.22S WCI  11
COTTONWOOD PAS FAIR      41  21  45 W12G17    30.15S
GUNNISON       FAIR      30  19  63 N7        30.14R WCI  23
KREMMLING      FAIR      37  30  75 SE3       30.12S
LEADVILLE      FAIR      27  21  78 CALM      30.15S
MONARCH PASS   CLOUDY    28  18  64 W20       30.31S WCI  15
SALIDA         FAIR      46  31  55 CALM      30.15F
SUNLIGHT       FAIR      27  19  74 SW6       30.22S WCI  20
WILKERSON PASS FAIR      30  21  69 SW6       30.23S WCI  24
$$

COZ069>075-250800-
...SAN LUIS VALLEY/SANGRE DE CRISTO MOUNTAINS...

CITY           SKY/WX    TMP DP  RH WIND       PRES   REMARKS
ALAMOSA        CLOUDY    36  29  75 CALM      30.05F
DEL NORTE      MOCLDY    35  25  67 NW7       30.09S WCI  29
LA VETA PASS   FAIR      39  21  48 SW14      30.26F
SAGUACHE       MOCLDY    43  21  42 NW10G18   30.09F
$$

COZ035-036-038>040-250800-
...NORTHERN COLORADO FRONT RANGE...

CITY           SKY/WX    TMP DP  RH WIND       PRES   REMARKS
DENVER INTL AP DRIZZLE   47  45  93 N8        30.07S FOG
DMNS CITY PARK   N/A     47  47  99 NE7       30.07S
AURORA         CLOUDY    46  46 100 N6        30.08S
FRONT RANGE AP DRIZZLE   46  46 100 N7        30.08S
ERIE MUNI ARPT CLOUDY    47  46  95 N7        30.13S
BOULDER MUN AP CLOUDY    46  45  93 CALM      30.08S
CENTENNIAL     LGT RAIN  46  46 100 N8        30.08R FOG
BROOMFIELD     CLOUDY    46  45  93 N8        30.09S
FORT COLLINS   CLOUDY    44  42  93 VRB3      30.08R
LONGMONT       MOCLDY    46  43  91 CALM      30.10S FOG
$$

COZ041-046-047-076>085-087-088-250800-
...PIKES PEAK/PALMER DIVIDE AND SOUTHERN FOOTHILLS...

CITY           SKY/WX    TMP DP  RH WIND       PRES   REMARKS
COLO. SPRINGS  CLOUDY    49  45  86 N13       30.06S
A. F. ACADEMY  CLOUDY    46  43  89 N12       30.06R
SCHRIEVER AFB  CLOUDY    48  45  89 MISG      30.06R
CHEYENNE MTN   CLOUDY    45  43  93 NW10G24   30.02R
ELLICOTT       CLOUDY   N/A N/A N/A N6        30.04S
FALCON         CLOUDY    45  43  93 N8        30.08S
FORT CARSON    CLOUDY    50  48  93 NW5       30.04R
LIMON            N/A    N/A N/A N/A MISG        N/A
MONUMENT HILL  FOG       41  41 100 N8        30.10S VSB 1
CANON CITY     MOCLDY    50  50 100 E3        30.01S FOG
WALSENBURG     CLOUDY    52  52 100 CALM      30.00F
TRINIDAD       CLOUDY    52  51  97 N3        29.99F FOG
$$

COZ042>045-048>051-090-091-250800-
...NORTHEAST COLORADO...

CITY           SKY/WX    TMP DP  RH WIND       PRES   REMARKS
GREELEY ARPT   MOCLDY    45  43  93 E5        30.07F
AKRON          CLOUDY    48  46  93 N7        30.06R FOG
BURLINGTON     CLOUDY    51  51 100 N12       30.01R
WRAY           CLOUDY   N/A N/A N/A N9        30.03R
YUMA           CLOUDY    46  46 100 N7        30.04R
STERLING       DRIZZLE   46  46 100 NE8       30.04F
HOLYOKE        CLOUDY    52  48  87 N8        30.04R
FORT MORGAN    CLOUDY    48  46  95 N7        30.07R
$$

COZ086-089-092>099-250800-
...SOUTHEAST COLORADO...

CITY           SKY/WX    TMP DP  RH WIND       PRES   REMARKS
PUEBLO         CLOUDY    54  50  86 CALM      29.99S
LA JUNTA       CLOUDY    54  52  93 N10       29.98S FOG
LAMAR          CLOUDY    55  53  93 N7        29.95S
SPRINGFIELD      N/A     54  32  43 N17       29.95S
$$




USA.gov is the U.S. government's official web portal to all federal, state and local government web resources and services.